Location: El Carrer d�Abaix
(41.5797°N, 2.1791°E)
Time: 20:46:36
(UTC+00:00)

COSMOS 2455 - Visible Passes

Search period start: 29 September 2020 00:00
Search period end: 09 October 2020 00:00
Orbit: 898 x 911 km, 67.1° (Epoch: 29 September)

Date Brightness Start Highest point End Pass type
(mag) Time Alt. Az. Time Alt. Az. Time Alt. Az.
29 Sep 5.6 02:48:11 10° N 02:51:32 15° NE 02:54:52 10° ENE visible
29 Sep 3.3 04:32:37 10° NNW 04:38:40 67° ENE 04:44:38 10° SE visible
29 Sep 2.7 19:35:49 10° SSW 19:41:51 87° ESE 19:47:56 10° NNE visible
29 Sep 5.1 21:24:18 10° W 21:28:35 20° NW 21:32:54 10° N visible
30 Sep 5.3 02:51:45 10° N 02:55:53 19° NE 03:00:00 10° E visible
30 Sep 2.9 04:36:37 10° NNW 04:42:42 88° ENE 04:48:43 10° SSE visible
30 Sep 4.1 17:56:40 10° SE 18:00:37 18° ESE 18:04:34 10° ENE visible
30 Sep 3.0 19:39:52 10° SW 19:45:52 71° WNW 19:51:56 10° NNE visible
30 Sep 5.4 21:29:23 10° WNW 21:32:55 16° NW 21:36:29 10° N visible
01 Oct 5.0 02:55:26 10° N 03:00:12 23° NE 03:04:55 10° E visible
01 Oct 2.8 04:40:40 10° NW 04:46:41 70° WSW 04:52:39 10° SSE visible
01 Oct 3.8 17:59:37 10° SSE 18:04:25 25° ESE 18:09:14 10° NE visible
01 Oct 3.5 19:44:04 10° SW 19:49:57 54° NW 19:55:53 10° NNE visible
01 Oct 5.6 21:34:47 10° WNW 21:37:20 13° NNW 21:39:52 10° N visible
02 Oct 4.6 02:59:11 10° NNW 03:04:26 30° NE 03:09:38 10° ESE visible
02 Oct 3.0 04:44:48 10° NW 04:50:37 51° WSW 04:56:24 10° S visible
02 Oct 3.4 18:02:54 10° S 18:08:14 35° ESE 18:13:38 10° NE visible
02 Oct 4.0 19:48:25 10° WSW 19:54:04 41° NW 19:59:46 10° NNE visible
02 Oct 5.8 21:41:19 10° NNW 21:41:47 10° NNW 21:42:14 10° NNW visible
03 Oct 4.1 03:03:00 10° NNW 03:08:37 38° NE 03:14:11 10° ESE visible
03 Oct 3.3 04:49:02 10° NW 04:54:31 38° WSW 04:59:59 10° S visible
03 Oct 3.1 18:06:24 10° S 18:12:08 47° ESE 18:17:54 10° NE visible
03 Oct 4.5 19:52:55 10° WSW 19:58:14 32° NW 20:03:36 10° NNE visible
04 Oct 5.6 01:23:07 10° N 01:25:17 12° NNE 01:27:27 10° NE visible
04 Oct 3.6 03:06:53 10° NNW 03:12:45 50° NE 03:18:34 10° SE visible
04 Oct 3.7 04:53:23 10° NW 04:58:22 28° WSW 05:03:20 10° SSW visible
04 Oct 2.9 18:10:08 10° SSW 18:16:04 65° ESE 18:22:02 10° NE visible
04 Oct 4.9 19:57:36 10° W 20:02:29 25° NW 20:07:23 10° N visible
05 Oct 5.4 01:28:07 14° NNE 01:29:42 15° NE 01:33:00 10° ENE visible
05 Oct 3.1 03:11:51 15° NNW 03:16:50 66° ENE 03:22:49 10° SE visible
05 Oct 4.0 04:57:57 10° WNW 05:02:11 20° WSW 05:06:22 10° SSW visible
05 Oct 2.9 18:14:00 10° SSW 18:20:02 86° ESE 18:26:07 10° NNE visible
05 Oct 5.2 20:02:26 10° W 20:06:45 20° NW 20:11:06 10° N visible
06 Oct 5.4 01:37:08 13° ENE 01:37:08 13° ENE 01:38:10 10° E visible
06 Oct 2.7 03:20:32 80° N 03:20:53 87° ENE 03:26:54 10° SSE visible
06 Oct 4.3 05:03:56 12° W 05:05:56 14° WSW 05:08:55 10° SW visible
06 Oct 3.2 18:18:03 10° SW 18:24:03 72° WNW 18:30:07 10° NNE visible
06 Oct 5.5 20:07:31 10° WNW 20:11:06 16° NW 20:14:41 10° N visible
07 Oct 3.9 03:27:42 32° S 03:27:42 32° S 03:30:50 10° SSE visible
07 Oct 3.6 18:22:14 10° SW 18:28:07 54° NW 18:34:04 10° NNE visible
07 Oct 5.6 20:12:55 10° WNW 20:15:29 13° NNW 20:18:05 10° N visible
08 Oct 5.0 03:34:17 11° S 03:34:17 11° S 03:34:35 10° S visible
08 Oct 4.1 18:26:34 10° WSW 18:32:14 41° NW 18:37:56 10° NNE visible
08 Oct 5.7 20:19:18 10° NW 20:19:57 10° NNW 20:20:35 10° NNW visible
